Content
SEND FEEDBACK

Daily
Averages
Monthly
Summary
United States of America

LINCOLN, VIRGINIA


Home > North America > United States > Virginia
Elevation: 469 feet     Latitude: 39 07N     Longitude: 077 43W

WEATHER
 
SELECT A DAY
Number of Records: 450,894;   Date Range: 1/4/95 - 10/30/14
 
SHARE

PRINT THIS DATA

[ ← Previous Day ]
WEATHER ALMANAC - JANUARY 23, 2013
[ Next Day → ]
[ °C ]   °F
Weather ElementAverageHighLow
Temperature21.3 °F28.4 °F (3:35 pm)12.2 °F (3:15 am)
Dewpoint4.8 °F10.4 °F (11:55 pm)3.2 °F (12:35 am)
Humidity51.3 %79 % (3:15 am)34 % (3:35 pm)
Barometer30.25 in30.35 in (9:55 am)30.14 in (11:35 pm)
Wind Speed5.2 mph13.8 mph (10:35 am)
Wind Gust21.9 mph (11:15 am)
Weather ElementAverage
Visibility10 mi
Wind DirectionSSW (200.3 °)

Weather ElementTotal
Precipitation---
Heating Degree Days44.7 (Base 65)
Averaged from 71 records on January 23, 2013
WEATHER CONDITIONS BREAKOUT
WIND DIRECTION BREAKOUT
WEATHER BY HOUR - JANUARY 23, 2013
[ °C ]   °F
Local TimeTemperatureDewpointHumidityBarometerVisibilityWind DirectionWind SpeedGust SpeedPrecipitationEventsConditions
12:35 AM17.6 °F3.2 °F53 %30.29 in10.0 miCalmClear
12:55 AM17.6 °F3.2 °F53 %30.29 in10.0 miCalmClear
1:15 AM15.8 °F5.0 °F62 %30.29 in10.0 miCalmClear
1:35 AM15.8 °F5.0 °F62 %30.29 in10.0 miNorthClear
1:55 AM14.0 °F5.0 °F67 %30.30 in10.0 miCalmClear
2:15 AM14.0 °F5.0 °F67 %30.30 in10.0 miNorth (360°)3.5 mphClear
2:35 AM14.0 °F5.0 °F67 %30.31 in10.0 miNorth (350°)3.5 mphMostly Cloudy
2:55 AM14.0 °F5.0 °F67 %30.31 in10.0 miCalmMostly Cloudy
3:15 AM12.2 °F6.8 °F79 %30.30 in10.0 miCalmScattered Clouds
3:35 AM12.2 °F6.8 °F79 %30.30 in10.0 miNW (320°)4.6 mphScattered Clouds
3:55 AM12.2 °F6.8 °F79 %30.30 in10.0 miNNW (330°)5.8 mphScattered Clouds
4:15 AM14.0 °F5.0 °F67 %30.30 in10.0 miNW (320°)4.6 mphScattered Clouds
4:35 AM12.2 °F6.8 °F79 %30.30 in10.0 miNW (310°)4.6 mphMostly Cloudy
4:55 AM14.0 °F6.8 °F73 %30.30 in10.0 miNW (320°)5.8 mphOvercast
5:15 AM12.2 °F6.8 °F79 %30.31 in10.0 miNW (310°)4.6 mphOvercast
5:35 AM12.2 °F6.8 °F79 %30.31 in10.0 miWNW (290°)5.8 mphOvercast
5:55 AM14.0 °F6.8 °F73 %30.31 in10.0 miWest (280°)4.6 mphMostly Cloudy
6:15 AM14.0 °F5.0 °F67 %30.31 in10.0 miWest (270°)4.6 mphScattered Clouds
6:35 AM14.0 °F5.0 °F67 %30.32 in10.0 miWest (270°)4.6 mphClear
6:55 AM14.0 °F5.0 °F67 %30.32 in10.0 miWest (280°)5.8 mphClear
7:15 AM14.0 °F5.0 °F67 %30.33 in10.0 miWNW (300°)4.6 mphClear
7:35 AM14.0 °F5.0 °F67 %30.33 in10.0 miNW (310°)5.8 mphClear
7:55 AM14.0 °F5.0 °F67 %30.33 in10.0 miWNW (300°)5.8 mphClear
8:15 AM17.6 °F6.8 °F63 %30.33 in10.0 miNW (310°)5.8 mphClear
8:35 AM17.6 °F5.0 °F58 %30.33 in10.0 miWNW (300°)9.2 mphClear
8:55 AM19.4 °F5.0 °F54 %30.34 in10.0 miNW (310°)10.4 mphClear
9:15 AM19.4 °F5.0 °F54 %30.34 in10.0 miNNW (330°)10.4 mphClear
9:35 AM19.4 °F5.0 °F54 %30.34 in10.0 miWNW (290°)9.2 mphClear
9:55 AM21.2 °F5.0 °F50 %30.35 in10.0 miNW (310°)6.9 mphClear
10:15 AM21.2 °F5.0 °F50 %30.34 in10.0 miWest (280°)10.4 mph18.4 mphClear
10:35 AM23.0 °F5.0 °F46 %30.34 in10.0 miNW (320°)13.8 mph20.7 mphScattered Clouds
10:55 AM23.0 °F5.0 °F46 %30.33 in10.0 miWNW (300°)12.7 mph16.1 mphScattered Clouds
11:15 AM23.0 °F5.0 °F46 %30.32 in10.0 miNW (320°)12.7 mph21.9 mphScattered Clouds
11:35 AM23.0 °F5.0 °F46 %30.30 in10.0 miWNW (290°)12.7 mphScattered Clouds
11:55 AM26.6 °F3.2 °F37 %30.28 in10.0 miWest (280°)12.7 mph18.4 mphScattered Clouds
12:15 PM24.8 °F3.2 °F40 %30.26 in10.0 miWNW (300°)10.4 mph20.7 mphScattered Clouds
12:35 PM26.6 °F3.2 °F37 %30.25 in10.0 miWNW (290°)10.4 mph16.1 mphScattered Clouds
12:55 PM26.6 °F3.2 °F37 %30.24 in10.0 miNW (310°)12.7 mph19.6 mphMostly Cloudy
1:15 PM24.8 °F3.2 °F40 %30.24 in10.0 miWest (270°)6.9 mphOvercast
1:35 PM26.6 °F3.2 °F37 %30.23 in10.0 miNW (310°)6.9 mphOvercast
1:55 PM26.6 °F3.2 °F37 %30.22 in10.0 miWNW (290°)6.9 mphOvercast
2:15 PM26.6 °F3.2 °F37 %30.22 in10.0 miWNW (290°)6.9 mphOvercast
2:35 PM26.6 °F3.2 °F37 %30.21 in10.0 miWNW (300°)10.4 mph19.6 mphOvercast
2:55 PM26.6 °F3.2 °F37 %30.21 in10.0 miWNW (290°)8.1 mph20.7 mphOvercast
3:15 PM26.6 °F3.2 °F37 %30.21 in10.0 miWest (260°)6.9 mphOvercast
3:35 PM28.4 °F3.2 °F34 %30.21 in10.0 miWest (280°)10.4 mphOvercast
3:55 PM28.4 °F3.2 °F34 %30.20 in10.0 miWest (270°)6.9 mphOvercast
4:15 PM26.6 °F3.2 °F37 %30.21 in10.0 miWNW (300°)6.9 mphOvercast
4:35 PM26.6 °F3.2 °F37 %30.21 in10.0 miNorth (350°)5.8 mphOvercast
4:55 PM26.6 °F3.2 °F37 %30.20 in10.0 miNNW (340°)3.5 mphOvercast
5:15 PM26.6 °F3.2 °F37 %30.20 in10.0 miNorth (350°)5.8 mphOvercast
5:35 PM26.6 °F3.2 °F37 %30.20 in10.0 miNNW (330°)4.6 mphOvercast
5:55 PM26.6 °F3.2 °F37 %30.20 in10.0 miNorth (360°)3.5 mphOvercast
6:15 PM26.6 °F3.2 °F37 %30.20 in10.0 miCalmOvercast
6:35 PM24.8 °F5.0 °F43 %30.19 in10.0 miCalmOvercast
6:55 PM24.8 °F3.2 °F40 %30.19 in10.0 miCalmOvercast
7:15 PM26.6 °F3.2 °F37 %30.18 in10.0 miNNE (20°)3.5 mphOvercast
7:35 PM26.6 °F3.2 °F37 %30.18 in10.0 miCalmOvercast
7:55 PM26.6 °F3.2 °F37 %30.18 in10.0 miCalmOvercast
8:15 PM24.8 °F3.2 °F40 %30.17 in10.0 miNNE (30°)3.5 mphOvercast
8:35 PM26.6 °F3.2 °F37 %30.17 in10.0 miCalmOvercast
8:55 PM24.8 °F5.0 °F43 %30.17 in10.0 miNE (40°)3.5 mphOvercast
9:15 PM24.8 °F3.2 °F40 %30.18 in10.0 miCalmOvercast
9:35 PM26.6 °F5.0 °F40 %30.18 in10.0 miCalmOvercast
9:55 PM24.8 °F8.6 °F50 %30.18 in10.0 miNorthOvercast
10:15 PM24.8 °F6.8 °F46 %30.17 in10.0 miCalmOvercast
10:35 PM24.8 °F8.6 °F50 %30.16 in10.0 miCalmOvercast
10:55 PM24.8 °F8.6 °F50 %30.16 in10.0 miCalmOvercast
11:15 PM24.8 °F8.6 °F50 %30.15 in10.0 miNE (40°)3.5 mphOvercast
11:35 PM24.8 °F8.6 °F50 %30.14 in10.0 miNE (40°)5.8 mphOvercast
11:55 PM23.0 °F10.4 °F59 %30.14 in10.0 miCalmOvercast
Hourly data recorded from KJYO, located miles away from Lincoln, Virginia







STORIES FROM OUR PARTNERS